GW3631 Weather Reports


Display with metric or nautical units.
time (UTC)temp
F
wind
direction
speed
MPH
gust
MPH
rain 1hr
in
rain 24hr
in
rain mn
in
humidity
%
barometer
mb
20260504050106 59 268 5.0 8.0 0.00 0.00 0.00 45 998.3
20260504044557 58 269 6.0 9.0 0.00 0.00 0.00 46 998.7
20260504043058 58 264 6.0 10.0 0.00 0.00 0.00 48 999.0
20260504041555 58 266 6.0 11.0 0.00 0.00 0.00 47 999.3
20260504040132 58 266 7.0 9.0 0.00 0.00 0.00 47 999.7
20260504034601 58 258 5.0 7.0 0.00 0.00 0.00 46 1000.1
20260504033052 58 264 4.0 8.0 0.00 0.00 0.00 46 1000.5
20260504031621 58 266 3.0 5.0 0.00 0.00 0.00 46 1000.8
20260504030053 58 270 2.0 4.0 0.00 0.00 0.00 48 1001.1
20260504024603 59 267 1.0 3.0 0.00 0.00 0.00 45 1001.5
20260504023056 59 266 2.0 3.0 0.00 0.00 0.00 44 1001.8
20260504021558 61 276 1.0 2.0 0.00 0.00 0.00 40 1001.9
20260504020112 61 271 1.0 3.0 0.00 0.00 0.00 39 1002.1
20260504014557 62 268 2.0 5.0 0.00 0.00 0.00 38 1002.2
20260504013056 63 267 4.0 6.0 0.00 0.00 0.00 36 1002.5
20260504011553 64 257 4.0 8.0 0.00 0.00 0.00 36 1002.7
20260504010058 65 271 8.0 12.0 0.00 0.00 0.00 34 1002.9
20260504004554 65 304 7.0 12.0 0.00 0.00 0.00 36 1003.1
20260504003053 66 271 6.0 11.0 0.00 0.00 0.00 34 1003.1
20260504001556 66 268 7.0 12.0 0.00 0.00 0.00 33 1003.1
20260504000056 66 297 10.0 14.0 0.00 0.00 0.00 33 1003.2
20260503234623 66 269 4.0 8.0 0.00 0.00 0.00 35 1003.5
20260503233055 66 297 7.0 12.0 0.00 0.00 0.00 33 1003.8
20260503231555 66 292 7.0 13.0 0.00 0.00 0.00 32 1004.0
20260503230058 66 299 10.0 16.0 0.00 0.00 0.00 30 1004.1
20260503224553 66 264 7.0 12.0 0.00 0.00 0.00 31 1004.0
20260503223054 66 261 7.0 14.0 0.00 0.00 0.00 31 1004.0
20260503221559 67 295 4.0 11.0 0.00 0.00 0.00 31 1004.2
20260503220058 66 304 7.0 10.0 0.00 0.00 0.00 30 1004.3
20260503214553 66 256 7.0 14.0 0.00 0.00 0.00 29 1004.6
20260503213055 66 262 6.0 12.0 0.00 0.00 0.00 30 1004.8
20260503211552 66 293 6.0 13.0 0.00 0.00 0.00 30 1005.0
20260503210054 66 269 7.0 11.0 0.00 0.00 0.00 31 1005.2
20260503204557 66 301 8.0 11.0 0.00 0.00 0.00 31 1005.2
20260503203057 66 354 2.0 10.0 0.00 0.00 0.00 32 1005.5
20260503201558 67 290 4.0 9.0 0.00 0.00 0.00 31 1005.7
20260503200058 65 295 6.0 11.0 0.00 0.00 0.00 30 1005.8
20260503194600 66 251 5.0 10.0 0.00 0.00 0.00 29 1005.9
20260503193058 65 304 4.0 12.0 0.00 0.00 0.00 30 1006.0
20260503191555 65 311 4.0 8.0 0.00 0.00 0.00 32 1006.2
20260503190053 65 264 3.0 7.0 0.00 0.00 0.00 30 1006.6
20260503184558 64 327 5.0 11.0 0.00 0.00 0.00 31 1006.9
20260503183054 63 304 6.0 10.0 0.00 0.00 0.00 32 1007.0
20260503181555 65 304 3.0 8.0 0.00 0.00 0.00 31 1007.2
20260503180100 64 304 3.0 8.0 0.00 0.00 0.00 30 1007.5
20260503173109 63 96 4.0 9.0 0.00 0.00 0.00 30 1007.6
20260503171554 62 354 3.0 7.0 0.00 0.00 0.00 29 1007.6
20260503110108 44 360 1.0 4.0 0.00 0.00 0.00 75 1005.5
20260503081553 45 0 0.0 1.0 0.00 0.00 0.00 74 1004.6
20260503071610 47 0 0.0 1.0 0.00 0.00 0.00 73 1004.5